Regional Weather Roundup
Issued by NWS

Home | Current Version | Previous Version | Text Only | Print | Product List | Glossary Off
Versions: 1 2 3 4 5 6 7 8 9 10 11 12 13 14 15 16 17 18 19 20 21 22 23 24 25 26 27 28 29 30 31 32 33 34 35 36 37 38 39 40 41 42 43 44 45 46 47 48 49 50

000
ASUS43 KMPX 010310
RWRMN
WEATHER ROUNDUP FOR MINNESOTA
NATIONAL WEATHER SERVICE TWIN CITIES/CHANHASSEN MN
1000 PM CDT TUE JUN 30 2015


NOTE: "FAIR" INDICATES FEW OR NO CLOUDS BELOW 12,000 FEET WITH NO
SIGNIFICANT WEATHER AND/OR OBSTRUCTIONS TO VISIBILITY. N/A MEANS
CURRENT SKY AND/OR WEATHER CONDITIONS ARE NOT AVAILABLE.

MNZ060>063-068>070-010400-
   Twin Cities Metro

CITY           SKY/WX    TMP DP  RH WIND       PRES   REMARKS
TWIN CITIES    MOCLDY    69  56  62 E9        29.94R
ST PAUL        CLEAR     66  56  70 E6        29.94S
CRYSTAL        PTCLDY    67  54  63 CALM      29.94R
BLAINE         PTCLDY    66  57  72 E3        29.95R
LAKEVILLE      PTCLDY    61  57  88 CALM      29.95R
EDEN PRAIRIE   MOCLDY    68  55  63 E6        29.94R
SOUTH ST PAUL  PTCLDY    67  54  63 CALM      29.94R
LAKE ELMO      FAIR      63  55  77 E6        29.96S
$$
MNZ001>005-007-008-013>017-022>024-027-028-010400-
   Northwest Minnesota

CITY           SKY/WX    TMP DP  RH WIND       PRES   REMARKS
BEMIDJI        MOCLDY    61  54  77 CALM      29.95R
HALLOCK        MOCLDY    68  61  77 CALM      29.91S
ROSEAU         MOCLDY    63  57  82 E5        29.94S
WARROAD        PTCLDY    64  55  72 CALM      29.95R
THIEF RVR FALL MOCLDY    66  55  68 CALM      29.94R
CROOKSTON      CLOUDY    70  55  60 CALM      29.92S
FOSSTON        MOCLDY    61  50  67 CALM      29.95R
DETROIT LAKES  CLOUDY    70  57  64 CALM      29.95R
MOORHEAD       CLOUDY    68  63  83 CALM      29.92R
PARK RAPIDS    CLOUDY    69  57  65 E5        29.93S
MAHNOMEN       FAIR      66  59  77 CALM      29.92S
$$
MNZ006-009>011-018-025>026-010400-
   North Central Minnesota

CITY           SKY/WX    TMP DP  RH WIND       PRES   REMARKS
BAUDETTE       MOCLDY    62  55  77 CALM      29.95R
FLAG ISLAND    MOCLDY    70  52  52 S7        29.93R
INTL FALLS     MOCLDY    55  52  89 CALM      29.96R
WASKISH        MOCLDY    63  55  77 NE3       29.95R
BIG FORK       PTCLDY    63  55  77 N3        29.97R
LONGVILLE      MOCLDY    59  57  94 CALM      29.95R
GRAND RAPIDS   PTCLDY    57  54  88 S3        29.96R
CRANE LAKE     PTCLDY    54  52  94 CALM      29.99R
ORR            MOCLDY    57  52  82 CALM      29.95R
COOK           PTCLDY    57  52  82 CALM      29.98R
WALKER         FAIR      60  55  84 CALM      29.94R
$$
MNZ012-019>021-037-010400-
   Northeast Minnesota

CITY           SKY/WX    TMP DP  RH WIND       PRES   REMARKS
DULUTH         PTCLDY    52  45  77 E5        29.98R
ELY            PTCLDY    55  48  76 CALM      29.98R
HIBBING        PTCLDY    59  52  77 SE5       29.96R
EVELETH        MOCLDY    57  50  77 CALM      29.99R
DULUTH HARBOR  PTCLDY    57  52  82 NE8       29.99R
TWO HARBORS    MOCLDY    54  48  82 N6        29.98R
SILVER BAY     PTCLDY    50  46  87 CALM      29.98S
GRAND MARAIS     N/A     47  44  90 CALM      30.00R
G MARAIS ARPRT CLEAR     43  39  87 CALM      30.02R
$$
MNZ029>031-032-039>041-046>048-054>057-064-010400-
   West Central Minnesota

CITY           SKY/WX    TMP DP  RH WIND       PRES   REMARKS
FERGUS FALLS   MOCLDY    70  61  73 CALM      29.91S
WHEATON        MOCLDY    63  61  94 CALM      29.93R
MORRIS         PTCLDY    66  61  82 E3        29.91R
ALEXANDRIA     MOCLDY    67  57  70 S5        29.94S
ELBOW LAKE     FAIR      67  62  84 CALM      29.92R
WADENA           N/A     66  57  72 CALM      29.93R
GLENWOOD       MOCLDY    66  61  82 CALM      29.94R
APPLETON       PTCLDY    64  61  88 CALM      29.91R
BENSON         MOCLDY    64  61  88 CALM      29.92R
ORTONVILLE     MOCLDY    66  61  82 CALM      29.91R
MADISON        PTCLDY    66  61  82 SE6       29.91S
WILLMAR        FAIR      70  63  78 CALM      29.94R
$$
MNZ033>034-036-042>043-049>051-058-059-010400-
   Central Minnesota

CITY           SKY/WX    TMP DP  RH WIND       PRES   REMARKS
ST CLOUD       CLOUDY    66  58  75 E5        29.94R
SAUK CENTRE    FAIR      67  57  70 E3        29.93S
PAYNESVILLE    CLOUDY    65  55  70 E6        29.94R
AITKIN         PTCLDY    64  55  72 CALM      29.94S
PINE RIVER       N/A     64  57  77 CALM      29.98R
BRAINERD       PTCLDY    63  58  83 CALM      29.95R
STAPLES        CLOUDY    66  54  63 CALM      29.94R
LONG PRAIRIE   FAIR      64  55  72 E3        29.94S
LITTLE FALLS   CLOUDY    64  54  68 E3        29.94S
LITCHFIELD     CLOUDY    68  63  83 E5        29.95R
BUFFALO        MOCLDY    67  57  70 CALM      29.96R
MAPLE LAKE     CLOUDY    68  61  77 E3        29.95R
$$
MNZ037-044-045-052-053-010400-
   East Central Minnesota

CITY           SKY/WX    TMP DP  RH WIND       PRES   REMARKS
PRINCETON      PTCLDY    66  57  72 CALM      29.95R
MORA           CLEAR     59  52  77 CALM      29.98R
CAMBRIDGE      CLEAR     66  54  63 CALM      29.94R
RUSH CITY      PTCLDY    61  54  77 E3        29.96R
MOOSE LAKE     PTCLDY    57  54  88 E3        29.96R
HINCKLEY       FAIR      57  55  94 E5        29.96S
CLOQUET        PTCLDY    54  46  76 E3        29.98R
MCGREGOR       PTCLDY    61  54  77 E3        29.96R
$$
MNZ071>073-080-081-089-090-097-098-010400-
   Southwest Minnesota

CITY           SKY/WX    TMP DP  RH WIND       PRES   REMARKS
MONTEVIDEO     PTCLDY    64  61  88 SE3       29.92S
GRANITE FALLS  PTCLDY    67  61  80 E3        29.93S
CANBY          PTCLDY    67  63  87 SE5       29.92S
MARSHALL       PTCLDY    66  61  82 SE6         N/A
REDWOOD FALLS  PTCLDY    67  63  87 E5        29.92S
OLIVIA         MOCLDY    68  61  77 CALM      29.93R
PIPESTONE      CLOUDY    66  63  88 SE6       29.92S
WINDOM         CLOUDY    66  61  82 CALM      29.94S
WORTHINGTON    CLOUDY    66  59  77 E7        29.93F
JACKSON        CLOUDY    68  61  77 E3        29.95R
TRACY          MOCLDY    66  63  90 CALM      29.93F
SLAYTON        CLOUDY    65  62  89 CALM      29.94S
$$
MNZ065>067-074>077-082>085-091>093-010400-
   South Central Minnesota

CITY           SKY/WX    TMP DP  RH WIND       PRES   REMARKS
MANKATO        MOCLDY    66  59  77 SE3       29.94R
NEW ULM        MOCLDY    70  59  68 E5        29.93S
ST JAMES       MOCLDY    66  64  94 CALM      29.94S
FAIRMONT       CLOUDY    66  59  77 CALM      29.94R
GLENCOE        CLOUDY    69  61  77 CALM      29.94R
FARIBAULT      MOCLDY    64  57  77 NE3       29.96R
OWATONNA       MOCLDY    66  57  72 NE6       29.95R
WASECA         MOCLDY    63  59  88 CALM      29.96R
ALBERT LEA     MOCLDY    64  61  88 NE5       29.95R
$$
MNZ078>079-086>088-094>096-010400-
   Southeast Minnesota

CITY           SKY/WX    TMP DP  RH WIND       PRES   REMARKS
ROCHESTER      MOCLDY    63  54  72 NE5       29.96R
RED WING       CLEAR     64  55  72 E5        29.95R
STANTON        PTCLDY    61  57  88 CALM      29.94R
DODGE CENTER   PTCLDY    64  55  72 NE3       29.97R
WINONA         PTCLDY    68  54  60 NE5       29.95R
AUSTIN         MOCLDY    64  57  77 CALM      29.95R
PRESTON        PTCLDY    62  55  78 N3        29.96R
$$
ABBREVIATIONS USED IN REMARKS
   TC - TEMPERATURES IN CELSIUS
  WCI - WIND CHILL INDEX
   HX - HEAT INDEX
  VSB - VISIBILITY
$$



USA.gov is the U.S. government's official web portal to all federal, state and local government web resources and services.